www.pogodaiklimat.ru

Погода и климат >> Архив погоды >> Мадагаскар >> Mahajanga


ПОГОДА в Mahajanga

  • Прогноз погоды в Mahajanga
  • Монитор погоды в Mahajanga
  • Климат города

АРХИВ ПОГОДЫ в Mahajanga

Время (UTC), дата Ветер
(напр.,м/с)
 
Видим.   Явления Облачность Т
(С)
Тd
(С)
f
(%)
Тe
(С)
Тes
(С)
Комфортность P
(гПа)
Po
(гПа)
Тmin
(С)
Tmax
(С)
R
(мм)
R24
(мм)
S
(см)
00 7.12 Ю 2 9000 м гроза, ливневой дождь 9/5 600 м
[Cb cap Ac As]
+23.0 +22.1 95 +31 +31 очень
душно
1010.5 1008.4 74
03 7.12 ЮВ 1 10 км гроза, ливневой дождь 9/5 600 м
[Cb cap Ac As]
+24.3 +23.0 92 +32 +32 очень
душно
1011.4 1009.3 76
06 7.12 ЮВ 3 40 км {гроза, дождь} 6/3 600 м
[Cb cap Ac trans Cs]
+28.2 +20.4 63 +35 +41 очень
душно
1012.3 1010.2 +22.6 +33.7 75
09 7.12 СВ 3 40 км 5/1 600 м
[Cb cap Ci sp]
+31.6 +19.4 48 +37 +52 опасность
солнечного
удара
1011.7 1009.6
12 7.12 С 4 40 км 5/1 600 м
[Cu Sc Ci sp]
+31.2 +22.2 59 +40 +46 очень
душно
1010.0 1007.9
15 7.12 С 3 40 км 4/1 600 м
[Cb cap Ci sp]
+29.0 +23.3 71 +39 +39 очень
душно
1009.4 1007.3 +32.4
18 7.12 СЗ 2 30 км 1/1 600 м
[Cu med, cong Ci sp]
+27.2 +25.3 89 +39 +39 очень
душно
1010.4 1015.8 +32.4
21 7.12 Ю 1 30 км 1/1 600 м
[Cu med, cong]
+26.8 +24.3 86 +37 +37 очень
душно
1010.2 1008.1
00 8.12 Ю 1 30 км 8/5 600 м
[Cu Sc Ac trans]
+26.0 +24.0 89 +36 +36 очень
душно
1009.9 1007.8
03 8.12 штиль 0 40 км гроза без осадков {дождь} 6/4 600 м
[Cb cap Ac trans Ci sp]
+26.2 +24.4 90 +37 +37 очень
душно
1011.2 1009.1
06 8.12 В 4 40 км {гроза, дождь} 6/5 600 м
[Cb cap Ac trans Ci sp]
+30.5 +19.1 51 +36 +40 очень
душно
1012.1 1010.0 +25.5 +32.4 0.5
09 8.12 С 5 40 км 3/3 600 м
[Cu med, cong Ci sp]
+32.5 +23.2 58 +43 +51 опасность
перегрева
1011.0 1008.9
12 8.12 СЗ 4 40 км 1/1 600 м
[Cb cap Ac trans Ci sp]
+32.4 +24.4 63 +45 +52 опасность
перегрева
1008.7 1006.7
15 8.12 СЗ 5 40 км 4/1 600 м
[Cb cap Ac trans Ci sp]
+29.6 +24.5 74 +42 +42 опасность
перегрева
1009.7 1007.6 +33.5
18 8.12 СЗ 4 30 км 1/1 600 м
[Cb cap]
+28.8 +24.6 78 +41 +41 опасность
перегрева
1011.0 1009.0 +33.5
21 8.12 СЗ 3 30 км 1/1 600 м
[Cb cap]
+28.4 +25.1 82 +41 +41 опасность
перегрева
1011.0 1009.0
00 9.12 ЮВ 2 30 км 1/1 600 м
[Cb cap]
+26.7 +23.6 83 +36 +36 очень
душно
1010.5 1008.5
03 9.12 ЮВ 2 40 км 6/3 600 м
[Cb cap Ac trans Ci sp]
+25.2 +22.0 82 +32 +33 очень
душно
1012.0 1009.9
06 9.12 ЮВ 4 40 км 1/1 600 м
[Cu med, cong Ac trans Ci sp]
+31.4 +20.4 52 +38 +45 очень
душно
1013.1 1011.0 +25.0 +33.5
09 9.12 В 3 40 км 3/3 600 м
[Cb cap Ac trans Ci sp]
+33.3 +21.9 51 +42 +54 опасность
перегрева
1011.9 1009.8
12 9.12 СЗ 4 40 км 5/3 600 м
[Cb cap Ci ing]
+33.0 +23.8 59 +45 +50 опасность
перегрева
1010.3 1008.2
15 9.12 СЗ 3 40 км 4/1 600 м
[Cb cap Ci ing]
+29.0 +24.8 78 +41 +42 опасность
перегрева
1010.2 1008.1 +33.8
18 9.12 СЗ 3 30 км 1/1 600 м
[Cb cap Ac trans Ci sp]
+28.8 +25.0 80 +42 +42 опасность
перегрева
1012.1 1010.0 +33.8
21 9.12 З 1 30 км 5/3 600 м
[Cu Sc Ac trans]
+28.4 +25.5 84 +42 +42 опасность
перегрева
1012.0 1010.0
00 10.12 штиль 0 10 км гроза без осадков 6/4 600 м
[Cb cap Ac cuf Ci ing]
+27.4 +25.5 89 +40 +40 очень
душно
1011.5 1009.4
03 10.12 ЮВ 1 15 км гроза без осадков 8/6 600 м
[Cb cap Ac trans Cs]
+27.0 +25.4 91 +39 +40 очень
душно
1012.9 1010.8
06 10.12 З 2 40 км {гроза} 8/4 600 м
[Cb cap Ac trans Ci sp]
+31.0 +22.3 60 +40 +45 очень
душно
1013.4 1011.3 +27.0 +33.8
09 10.12 СЗ 4 40 км 5/3 600 м
[Cu med, cong Ac trans Ci sp]
+32.8 +25.6 66 +48 +56 опасность
перегрева
1012.4 1010.4
12 10.12 СЗ 6 30 км 4/3 600 м
[Cb cap Ac trans Ci sp]
+32.4 +24.4 63 +45 +48 опасность
перегрева
1010.3 1008.2
15 10.12 СЗ 4 30 км 5/3 600 м
[Cb cap Ac trans Ci ing]
+29.2 +25.3 80 +43 +43 опасность
перегрева
1010.1 1008.0 +33.5
18 10.12 СЗ 4 30 км 3/3 600 м
[Cb cap Ci sp]
+28.5 +25.0 81 +41 +41 опасность
перегрева
1011.9 1009.8 +33.5
21 10.12 З 3 30 км 5/4 600 м
[Cb cap Ci sp]
+27.5 +24.7 85 +39 +39 очень
душно
1012.4 1010.3
00 11.12 ЮВ 2 30 км 5/4 600 м
[Cb cap Ci sp]
+27.0 +24.2 85 +38 +38 очень
душно
1011.9 1009.8
03 11.12 З 2 20 км гроза без осадков 9/8 600 м
[Cb cap Ac trans]
+27.8 +25.6 88 +41 +41 опасность
перегрева
1012.1 1010.0
06 11.12 СЗ 3 25 км гроза без осадков 9/6 300 м
[Cb cap Ac trans]
+29.1 +24.9 78 +42 +44 опасность
перегрева
1013.6 1011.5 +27.8 +33.5
09 11.12 С 4 40 км {гроза} 5/3 600 м
[Cb cap Ac trans Ci sp]
+32.6 +26.5 70 +49 +58 опасность
перегрева
1012.3 1010.3
12 11.12 СЗ 5 40 км 4/1 600 м
[Cb cap Ci sp]
+32.2 +24.3 63 +44 +49 опасность
перегрева
1009.5 1007.4
15 11.12 СЗ 5 40 км 4/1 600 м
[Cb cap Ci sp]
+29.2 +25.0 78 +42 +42 опасность
перегрева
1009.1 1007.1 +33.4
18 11.12 СЗ 3 30 км 3/1 600 м
[Cb cap Ac trans]
+28.6 +25.6 84 +42 +42 опасность
перегрева
1011.7 1009.6 +33.4
21 11.12 СЗ 4 30 км 4/4 600 м
[Cb cap Ac trans]
+28.6 +25.6 84 +42 +42 опасность
перегрева
1012.5 1010.4
00 12.12 Ю 3 30 км 4/4 600 м
[Cb cap Ac trans]
+28.1 +25.5 86 +41 +41 опасность
перегрева
1011.8 1009.7
03 12.12 ЮВ 3 9000 м гроза без осадков 9/6 600 м
[Cb cap Ac As]
+26.4 +22.2 78 +34 +35 очень
душно
1013.5 1011.4
06 12.12 СЗ 1 10 км в посл. час гроза {дождь} 10/5 500 м
[Cb cap Ac As]
+26.0 +24.2 90 +36 +38 очень
душно
1014.9 1012.7 +26.1 +33.4 4
09 12.12 С 2 40 км 9/3 600 м
[Cb cap Ac As]
+29.2 +25.5 80 +43 +49 опасность
перегрева
1014.4 1012.3
12 12.12 С 4 40 км 9/4 600 м
[Cb cap Ac trans Ci sp]
+31.0 +25.0 70 +44 +47 опасность
перегрева
1012.4 1010.3
15 12.12 СЗ 3 40 км {гроза} 8/3 600 м
[Cb cap Ac trans Ci sp]
+28.3 +24.1 78 +39 +39 очень
душно
1012.1 1010.0 +31.2
18 12.12 СЗ 2 40 км 1/1 600 м
[Cu med, cong Ac trans]
+27.2 +25.1 88 +39 +39 очень
душно
1013.7 1011.6 +31.2
21 12.12 ЮВ 2 30 км 3/3 600 м
[Cu med, cong]
+26.7 +24.3 87 +37 +37 очень
душно
1014.4 1012.3
00 13.12 штиль 0 30 км 3/3 600 м
[Cb cap]
+26.0 +24.5 91 +36 +36 очень
душно
1013.5 1011.4
03 13.12 СВ 1 40 км 5/3 600 м
[Cb cap Ac trans]
+26.0 +24.9 94 +37 +37 очень
душно
1015.1 1013.0
06 13.12 С 1 40 км 6/5 600 м
[Cu Sc Ac trans Ci sp]
+31.0 +22.6 61 +41 +47 опасность
перегрева
1015.4 1013.3 +25.3 +31.2
09 13.12 ЮВ 4 9000 м гроза, ливневой дождь 9/8 600 м
[Cb cap Ci sp]
+29.2 +23.2 70 +39 +42 очень
душно
1014.3 1012.2
12 13.12 СЗ 2 20 км {гроза, дождь} 8/4 600 м
[Cb cap Ac trans Cs]
+28.8 +24.9 79 +41 +46 опасность
перегрева
1012.4 1010.3 1
15 13.12 СЗ 3 30 км 6/3 600 м
[Cb cap Ac trans Ci sp]
+29.0 +24.8 78 +41 +42 опасность
перегрева
1012.5 1010.4 +30.6
18 13.12 ЮВ 1 30 км зарница 3/1 600 м
[Cb cap Ci sp]
+28.2 +24.4 80 +40 +40 очень
душно
1013.1 1011.0 +30.6

 

Местоположение метеостанции Mahajanga (Мадагаскар): широта -15.66 долгота 46.35 высота над уровнем моря 18 м.

В архиве по умолчанию представлена погода в Mahajanga за последнюю неделю. Архивные данные за месяц целиком и за предыдущие месяцы, начиная с января 2011 года, Вы можете получить, выбрав интересующий диапазон дат из раскрывающегося списка и нажав кнопку "Ввод!".


*Определитесь, кто Вы:
робот инопланетянин человек

Внимание! Время в таблицах - всемирное. Для получения местного времени необходимо прибавить поправку, которая в Mahajanga равна 3 ч.

Смотрите также архив погоды в соседних городах и на ближайших метеорологических станциях:

Погода в Antsohihy (Мадагаскар) (195 км)
Погода в Besalampy (Мадагаскар) (234 км)
Погода в Ambohitsilaozana (Мадагаскар) (317 км)
Погода в Fascene (Мадагаскар) (337 км)
Погода в Dzaoudzi (Коморские Острова) (338 км)
Погода в Maintirano (Мадагаскар) (363 км)
Погода в Antananarivo Airport (Мадагаскар) (369 км)
Погода в Antananarivo (Мадагаскар) (377 км)
Погода в Nosy Boraha (Мадагаскар) (403 км)
Погода в Juan De Nova Island (Реюньон) (417 км)

Пояснения к столбцам:

Ветер - указаны скорость ветра в м/с - средняя за 10 мин, порывы в срок и между сроками (в фигурных скобках) и направление, откуда дует ветер: С - северный, СВ - северо-восточный, В - восточный, ЮВ - юго-восточный, Ю - южный, ЮЗ - юго-западный, З - западный, СЗ - северо-западный.
Видимость - горизонтальная дальность видимости в метрах или километрах. При видимости от 1 до 10 км при отсутствии осадков обычно наблюдается дымка, при ухудшении видимости до 1 км и менее - туман. В сухую погоду видимость может ухудшаться дымом, пылью или мглою.
Явления - указаны атмосферные явления, наблюдавшиеся в срок или в последний час перед сроком; фигурными скобками обозначены явления, наблюдавшиеся между сроками (за 1-3 часа до срока); квадратными скобками обозначены град или гололедные отложения с указанием их диаметра в мм.
Облачность - указаны через наклонную черту общая и нижняя облачность в баллах и высота нижней границы облаков в метрах; квадратными скобками обозначены формы облаков: Ci - перистые, Cs - перисто-слоистые, Cc - перисто-кучевые, Ac - высококучевые, As - высокослоистые, Sc - слоисто-кучевые, Ns - слоисто-дождевые, Cu - кучевые, Cb - кучево-дождевые. Подробнее классификацию облаков см. в Атласе облаков (PDF).
T - Температура воздуха - температура, измеренная на высоте 2 м над землей.
Td - Температура точки росы - температура, при понижении до которой содержащийся в воздухе водяной пар достигнет насыщения.
f - Относительная влажность воздуха - влажноcть воздуха, измеренная на высоте 2 м над землей.
Te - Эффективная температура - температура, которую ощущает одетый по сезону человек в тени. Характеристика душности погоды. При расчете учитывается влияние влажности воздуха и скорости ветра на теплоощущения человека.
Tes - Эффективная температура на солнце - температура, которую ощущает человек, с поправкой на солнечный нагрев. Характеристика знойности погоды. Зависит от высоты солнца над горизонтом, облачности и скорости ветра. Ночью, в пасмурную погоду, а также при ветре 12 м/с и более поправка равна нулю.
P - Атмосферное давление - приведенное к уровню моря атмосферное давление.
Po - Атмосферное давление - измеренное на уровне метеостанции атмосферное давление.
Tmin - Минимальная температура - минимум температуры воздуха на высоте 2 м над землей.
Tmax - Максимальная температура - максимум температуры воздуха на высоте 2 м над землей.
R - Количество осадков - Количество выпавших осадков за период времени, мм. При наведении курсора мыши на число - период времени, за который выпало указанное количество осадков.
R24 - Количество осадков - Количество выпавших осадков за 24 часа, мм.
S - Снежный покров - Высота снежного покрова, см. При наведении курсора мыши на число - состояние снежного покрова и степень покрытия местности в баллах.